This demonstration page uses our WeatherBlox Daily Observations layout. Learn more.

Left ArrowRight Arrow

Hourly Observations for October 1, 2015

Temp ( °F °C ) Dew Point ( °F °C ) Humidity (%) Winds ( mph kmh ) Pressure ( in mb ) Visibility ( mi km ) Precip ( " mm )
12:53 am 00:53 Clear 61 16.1 40 4.4 46 46 WNW 5 7 29.90 1013 10 16 0.00 0.00
1:53 am 01:53 Clear 61 16.1 41 5 48 48 Calm 29.89 1012 10 16 0.00 0.00
2:53 am 02:53 Clear 60 15.6 43 6.1 53 53 undefined N/A 29.89 1012 10 16 0.00 0.00
3:53 am 03:53 Clear 59 15 43 6.1 56 56 undefined N/A 29.90 1012 10 16 0.00 0.00
4:53 am 04:53 Clear 60 15.6 42 5.6 52 52 undefined N/A 29.90 1013 10 16 0.00 0.00
5:53 am 05:53 Cloudy 60 15.6 43 6.1 53 53 NW 3 6 29.92 1013 10 16 0.00 0.00
6:53 am 06:53 Mostly Cloudy 61 16 45 7 55 55 Calm N/A 2 3 0.00 0.00
7:53 am 07:53 Partly Cloudy 60 15.6 45 7.2 58 58 NW 3 6 29.95 1014 10 16 0.00 0.00
8:53 am 08:53 Cloudy with Light Rain 59 15 48 8.9 67 67 NNE 6 9 29.97 1015 10 16 0.01 0.25
9:53 am 09:53 Cloudy 59 15 48 8.9 67 67 NE 3 6 29.99 1016 10 16 0.01 0.25
10:53 am 10:53 Cloudy 60 15.6 51 10.6 72 72 N 8 13 30.00 1016 10 16 0.00 0.00
11:53 am 11:53 Sunny 68 20 50 10 53 53 N 7 11 30.00 1016 10 16 0.00 0.00
12:53 pm 12:53 Sunny 72 22.2 47 8.3 41 41 N 8 13 29.99 1016 10 16 0.00 0.00
1:53 pm 13:53 Sunny 75 23.9 47 8.3 37 37 NNE 9 15 29.96 1015 10 16 0.00 0.00
2:53 pm 14:53 Sunny 75 23.9 48 8.9 39 39 ENE 9 15 29.95 1014 10 16 0.00 0.00
3:53 pm 15:53 Sunny 75 23.9 48 8.9 39 39 ENE 6 9 29.95 1014 10 16 0.00 0.00
4:53 pm 16:53 Mostly Sunny 79 26 34 1 20 20 S 8 13 29.91 1013 10 16 0.00 0.00
5:53 pm 17:53 Sunny 73 22.8 50 10 44 44 N 3 6 29.96 1015 10 16 0.00 0.00
6:53 pm 18:53 Partly Cloudy 70 21.1 51 10.6 51 51 Calm 29.96 1015 10 16 0.00 0.00
7:53 pm 19:53 Cloudy 70 21.1 51 10.6 51 51 Calm 29.98 1015 10 16 0.00 0.00
8:53 pm 20:53 Cloudy 68 20 52 11.1 57 57 Calm 29.98 1015 10 16 0.00 0.00
9:53 pm 21:53 Cloudy 67 19.4 52 11.1 59 59 WSW 5 7 30.00 1016 10 16 0.00 0.00
10:53 pm 22:53 Cloudy 68 20 52 11.1 57 57 Calm 30.01 1016 10 16 0.00 0.00
11:53 pm 23:53 Mostly Clear 65 18.3 51 10.6 61 61 Calm 30.03 1017 10 16 0.00 0.00

Powered by AerisWeather